NUSANTARA TIGA (SATRIA)

Last updated on Wed Sep 09 2026 00:03:03 GMT+0000 (Coordinated Universal Time)

1 57045U 23086A 26251.04558649 -.00000256 00000+0 00000+0 0 9999 2 57045 0.0504 358.2761 0002304 295.3672 215.8695 1.00267666 10592
UTC large
Height (km)
Speed (km/s)
/
Latitude / Longitude
Inclination (degrees)
Orbital Period (minutes)
Azimuth
Elevation
Range (km)
Doppler Factor

Next 0 passes for location: London (51.5072 / 0.1276)

No passes found over London.
NUSANTARA TIGA (SATRIA)